Meteo Giornale » Osservazioni meteo Italia » Brescia-Montichiari

ore: 16:50 - Osservazioni Meteo Brescia-Montichiari
Lat. 45° 24' N Lon. 10° 18' E Alt. 104 metri s.l.m.

sereno Europe/Rome

21 °C

Sereno

Temp. 24 Ore

9 °C

21 °C

Ovest/Sud-Ovest

14.8 Km/h

Dew point 10 °C

Umidità 49 %

Visibilità  10 Km

Il sole sorge alle ore 07:13

Il sole tramonta alle ore 19:04

Data e Ora Cielo e Fenomeni T °C DP °C Um. % Pres. hPa Vis. km Vento km/h
Oggi h: 16:50 sereno Sereno 21 10 49 1015 10 O/SO 14.8
Oggi h: 16:20 sereno Sereno 21 10 49 1016 10 O 11.1
Oggi h: 15:50 sereno Sereno 21 10 49 1016 10 O 11.1
Oggi h: 15:20 sereno Sereno 20 10 52 1016 10 O 14.8
Oggi h: 14:50 sereno Sereno 20 10 52 1016 10 O/SO 14.8
Oggi h: 14:20 sereno Sereno 20 10 52 1016 10 O 14.8
Oggi h: 13:50 sereno Sereno 19 10 55 1017 10 O 16.7
Oggi h: 13:20 sereno Sereno 19 10 55 1017 10 O/SO 18.5
Oggi h: 12:20 sereno Sereno 19 9 52 1017 10 O 11.1
Oggi h: 11:50 sereno Sereno 19 9 52 1017 10 N 7.4
Oggi h: 11:20 sereno Sereno 18 9 55 1017 10 N 5.5
Oggi h: 10:50 nuvoloso Nuvoloso 17 9 59 1017 10 N 3.7
Oggi h: 10:20 nuvoloso Nuvoloso 17 9 59 1017 10 N 3.7
Oggi h: 09:50 molto_nuvoloso Molto Nuvoloso 16 10 67 1017 10 N 1.8
Oggi h: 09:20 molto_nuvoloso Molto Nuvoloso 15 9 67 1017 10 N 1.8
Oggi h: 08:50 poco_nuvoloso Poco Nuvoloso 13 9 76 1016 10 N 3.7
Oggi h: 08:20 sereno Sereno 12 9 81 1016 10 N 3.7
Oggi h: 07:50 poco_nuvoloso Poco Nuvoloso 10 8 87 1016 10 N 5.5
Oggi h: 07:20 molto_nuvoloso Molto Nuvoloso 9 8 93 1015 10 N 3.7
Oggi h: 06:50 nuvoloso Nuvoloso 9 7 87 1015 10 N 9.3
Oggi h: 06:20 sereno Sereno 9 7 87 1015 10 N 3.7
Oggi h: 05:50 sereno Sereno 9 7 87 1014 10 N 3.7
Oggi h: 04:50 sereno Sereno 10 7 81 1014 10 N 3.7
Oggi h: 04:20 sereno Sereno 11 7 76 1014 10 N 1.8
Oggi h: 03:50 sereno Sereno 10 8 87 1014 10 N 5.5
Oggi h: 03:20 sereno Sereno 11 8 81 1014 10 N 3.7
Oggi h: 02:50 sereno Sereno 11 8 81 1014 10 N/NE 7.4
Oggi h: 02:20 sereno Sereno 11 9 87 1014 10 N/NE 9.3
Oggi h: 01:50 sereno Sereno 11 9 87 1013 10 N/NE 9.3
Oggi h: 01:20 sereno Sereno 12 9 81 1013 10 N/NE 7.4
Oggi h: 00:50 sereno Sereno 12 9 81 1013 10 NE 9.3
Oggi h: 00:20 sereno Sereno 13 9 76 1013 10 N/NE 7.4
Ieri h: 23:50 sereno Sereno 13 9 76 1013 10 NE 9.3
Ieri h: 23:20 sereno Sereno 13 10 81 1013 10 N/NE 9.3
Ieri h: 22:50 molto_nuvoloso Molto Nuvoloso 14 10 76 1013 10 NE 9.3
Ieri h: 22:20 nuvoloso Nuvoloso 15 10 72 1012 10 E/NE 9.3
Ieri h: 21:50 molto_nuvoloso Molto Nuvoloso 15 9 67 1012 10 N/NE 9.3
Ieri h: 21:20 molto_nuvoloso Molto Nuvoloso 15 8 62 1011 10 N 5.5
Ieri h: 20:50 molto_nuvoloso Molto Nuvoloso 16 8 58 1011 10 N 1.8
Ieri h: 20:20 molto_nuvoloso Molto Nuvoloso 16 9 63 1010 10 N 1.8
Ieri h: 19:50 molto_nuvoloso Molto Nuvoloso 17 8 55 1010 10 N 1.8
Ieri h: 19:20 molto_nuvoloso Molto Nuvoloso 18 6 45 1010 10 N 1.8
Ieri h: 18:50 molto_nuvoloso Molto Nuvoloso 19 7 45 1009 10 N 3.7
Ieri h: 17:50 sereno Sereno 20 5 37 1008 10 O/SO 7.4